QPF
0.02 0.02 0.03 0.03 0.03 0.01 0.01 0.02 0.02 0.01 0.01 0.01 0.01 0.01 0.01 0.01 0.01 0.01 0.02 0.04 0.05 0.03 0.03 0.03 0.03 0.05 0.06 0.06 0.06 0.05 0.05 0.04 0.03 0.03 0.03 0.02 0.02 0.02 0.03 0.03 0.03 0.02 0.01
0.03 0.02 0.02 0.03 0.05 0.05 0.03 0.03 0.02 0.02 0.01 0.01 0.01 0.01 0.02 0.03 0.02 0.02 0.02 0.03 0.03 0.04 0.03 0.03 0.03 0.04 0.06 0.07 0.08 0.05 0.04 0.04 0.03 0.03 0.02 0.02 0.02 0.01 0.03 0.04 0.04 0.03 0.02
0.04 0.03 0.03 0.02 0.03 0.06 0.07 0.04 0.02 0.02 0.02 0.01 0.01 0.01 0.02 0.03 0.04 0.04 0.03 0.02 0.02 0.03 0.03 0.03 0.03 0.04 0.06 0.07 0.08 0.06 0.05 0.04 0.04 0.04 0.03 0.02 0.02 0.02 0.02 0.03 0.03 0.03 0.03
0.04 0.03 0.03 0.03 0.03 0.03 0.08 0.09 0.05 0.03 0.03 0.02 0.01 0.01 0.01 0.03 0.05 0.05 0.04 0.03 0.03 0.02 0.02 0.02 0.03 0.03 0.05 0.07 0.08 0.07 0.06 0.05 0.05 0.04 0.03 0.02 0.02 0.01 0.02 0.02 0.03 0.03 0.03
0.06 0.05 0.05 0.04 0.04 0.05 0.06 0.09 0.09 0.06 0.05 0.05 0.03 0.02 0.02 0.02 0.04 0.05 0.04 0.03 0.03 0.03 0.02 0.02 0.02 0.02 0.05 0.06 0.06 0.07 0.06 0.06 0.05 0.04 0.03 0.02 0.01 0.02 0.02 0.03 0.03 0.03 0.03
0.07 0.08 0.07 0.07 0.06 0.06 0.05 0.06 0.07 0.07 0.05 0.06 0.07 0.06 0.04 0.03 0.03 0.04 0.05 0.04 0.04 0.04 0.03 0.02 0.02 0.02 0.04 0.06 0.06 0.07 0.07 0.05 0.05 0.04 0.03 0.02 0.02 0.02 0.02 0.03 0.03 0.03 0.03
0.10 0.09 0.09 0.10 0.09 0.07 0.05 0.06 0.06 0.07 0.06 0.05 0.06 0.06 0.07 0.05 0.04 0.04 0.05 0.05 0.04 0.04 0.04 0.04 0.03 0.01 0.02 0.03 0.05 0.08 0.08 0.07 0.06 0.04 0.03 0.03 0.03 0.02 0.02 0.03 0.03 0.02 0.02
0.13 0.11 0.10 0.12 0.13 0.11 0.08 0.07 0.07 0.06 0.06 0.04 0.04 0.04 0.05 0.06 0.05 0.04 0.05 0.06 0.06 0.04 0.04 0.04 0.03 0.02 0.01 0.01 0.02 0.05 0.10 0.13 0.10 0.07 0.04 0.03 0.03 0.03 0.02 0.03 0.03 0.02 0.02
0.14 0.16 0.14 0.14 0.14 0.13 0.11 0.09 0.08 0.08 0.07 0.05 0.03 0.04 0.05 0.06 0.05 0.04 0.04 0.05 0.06 0.05 0.04 0.04 0.03 0.02 0.02 0.02 0.01 0.02 0.05 0.13 0.14 0.09 0.05 0.05 0.04 0.04 0.03 0.03 0.02 0.02 0.02
0.12 0.15 0.15 0.15 0.16 0.15 0.11 0.09 0.08 0.08 0.07 0.07 0.05 0.03 0.03 0.04 0.05 0.05 0.05 0.06 0.07 0.07 0.06 0.05 0.03 0.03 0.03 0.02 0.02 0.03 0.03 0.05 0.08 0.09 0.08 0.06 0.06 0.06 0.05 0.04 0.03 0.02 0.02
0.11 0.12 0.13 0.12 0.13 0.17 0.17 0.13 0.09 0.08 0.07 0.07 0.06 0.04 0.03 0.03 0.03 0.05 0.05 0.06 0.08 0.07 0.06 0.05 0.05 0.04 0.04 0.04 0.03 0.03 0.03 0.04 0.06 0.08 0.10 0.10 0.09 0.08 0.08 0.06 0.04 0.02 0.02
0.09 0.09 0.09 0.08 0.07 0.08 0.13 0.16 0.14 0.11 0.09 0.07 0.07 0.05 0.04 0.03 0.03 0.04 0.05 0.05 0.07 0.08 0.07 0.06 0.05 0.05 0.05 0.06 0.06 0.06 0.05 0.05 0.06 0.08 0.10 0.12 0.12 0.11 0.10 0.09 0.07 0.04 0.02
0.06 0.07 0.07 0.06 0.06 0.06 0.06 0.08 0.12 0.12 0.11 0.09 0.07 0.06 0.05 0.05 0.03 0.03 0.04 0.06 0.07 0.07 0.07 0.06 0.05 0.03 0.03 0.03 0.05 0.08 0.07 0.07 0.07 0.07 0.08 0.11 0.14 0.13 0.11 0.10 0.09 0.07 0.04
0.03 0.04 0.05 0.05 0.04 0.04 0.06 0.07 0.08 0.10 0.11 0.09 0.08 0.06 0.06 0.05 0.05 0.05 0.04 0.05 0.05 0.06 0.06 0.06 0.05 0.04 0.02 0.02 0.02 0.04 0.05 0.06 0.07 0.08 0.08 0.08 0.11 0.14 0.15 0.12 0.10 0.08 0.06
0.02 0.02 0.03 0.04 0.04 0.04 0.04 0.05 0.07 0.08 0.11 0.11 0.09 0.08 0.06 0.05 0.05 0.05 0.06 0.06 0.06 0.06 0.06 0.05 0.05 0.04 0.03 0.02 0.02 0.02 0.03 0.04 0.06 0.07 0.07 0.07 0.08 0.10 0.13 0.14 0.12 0.10 0.07
0.01 0.02 0.02 0.03 0.05 0.05 0.05 0.05 0.06 0.07 0.08 0.10 0.11 0.10 0.08 0.06 0.05 0.04 0.04 0.05 0.06 0.06 0.06 0.06 0.05 0.04 0.03 0.02 0.02 0.02 0.03 0.03 0.04 0.05 0.06 0.05 0.05 0.07 0.09 0.12 0.13 0.13 0.11
0.01 0.02 0.02 0.03 0.04 0.05 0.06 0.06 0.06 0.06 0.07 0.08 0.10 0.11 0.09 0.07 0.07 0.06 0.05 0.05 0.07 0.09 0.08 0.07 0.07 0.06 0.04 0.03 0.02 0.02 0.02 0.03 0.04 0.05 0.05 0.06 0.05 0.06 0.07 0.09 0.10 0.11 0.12
0.01 0.01 0.02 0.03 0.04 0.05 0.06 0.08 0.07 0.06 0.07 0.07 0.08 0.09 0.10 0.09 0.08 0.08 0.07 0.06 0.05 0.06 0.08 0.08 0.08 0.09 0.07 0.05 0.04 0.03 0.02 0.02 0.03 0.05 0.06 0.06 0.06 0.05 0.07 0.08 0.08 0.09 0.09
0.01 0.01 0.01 0.02 0.04 0.05 0.06 0.07 0.07 0.07 0.06 0.06 0.06 0.07 0.07 0.08 0.08 0.08 0.08 0.07 0.05 0.04 0.05 0.05 0.06 0.07 0.07 0.05 0.04 0.05 0.05 0.04 0.03 0.04 0.05 0.05 0.06 0.06 0.06 0.08 0.09 0.09 0.08
0.01 0.01 0.01 0.02 0.03 0.05 0.06 0.06 0.06 0.06 0.06 0.06 0.06 0.06 0.07 0.07 0.07 0.07 0.07 0.06 0.05 0.04 0.04 0.05 0.06 0.06 0.06 0.05 0.04 0.05 0.05 0.06 0.05 0.05 0.05 0.05 0.05 0.05 0.05 0.06 0.08 0.09 0.09
0.00 0.01 0.01 0.01 0.02 0.04 0.05 0.06 0.06 0.06 0.05 0.05 0.05 0.05 0.06 0.07 0.07 0.08 0.08 0.07 0.06 0.05 0.05 0.06 0.07 0.07 0.07 0.06 0.05 0.04 0.04 0.04 0.05 0.05 0.05 0.05 0.04 0.04 0.04 0.04 0.05 0.08 0.09
0.01 0.01 0.01 0.01 0.02 0.03 0.04 0.05 0.06 0.06 0.05 0.05 0.06 0.06 0.06 0.06 0.07 0.08 0.08 0.08 0.08 0.06 0.05 0.06 0.06 0.06 0.06 0.06 0.04 0.03 0.03 0.03 0.03 0.03 0.03 0.04 0.04 0.04 0.03 0.04 0.05 0.05 0.07
0.01 0.01 0.01 0.02 0.02 0.03 0.03 0.04 0.05 0.05 0.05 0.05 0.06 0.07 0.07 0.06 0.06 0.06 0.06 0.06 0.07 0.07 0.07 0.07 0.07 0.06 0.05 0.05 0.06 0.04 0.03 0.03 0.02 0.02 0.02 0.03 0.04 0.04 0.03 0.03 0.05 0.05 0.05
0.01 0.01 0.01 0.02 0.02 0.03 0.03 0.03 0.03 0.04 0.04 0.04 0.04 0.05 0.06 0.06 0.06 0.06 0.06 0.06 0.06 0.06 0.05 0.05 0.05 0.05 0.05 0.06 0.06 0.06 0.04 0.04 0.03 0.02 0.03 0.04 0.04 0.05 0.04 0.03 0.03 0.04 0.05
0.01 0.01 0.02 0.02 0.02 0.02 0.03 0.03 0.03 0.03 0.03 0.03 0.04 0.04 0.05 0.05 0.06 0.06 0.06 0.07 0.06 0.06 0.06 0.07 0.06 0.06 0.07 0.07 0.07 0.08 0.07 0.07 0.06 0.04 0.03 0.04 0.04 0.04 0.04 0.04 0.04 0.03 0.03
0.02 0.02 0.02 0.02 0.02 0.02 0.02 0.04 0.03 0.03 0.03 0.02 0.02 0.02 0.03 0.03 0.04 0.05 0.06 0.05 0.06 0.06 0.05 0.06 0.07 0.07 0.06 0.07 0.07 0.06 0.06 0.06 0.06 0.05 0.03 0.03 0.04 0.04 0.05 0.05 0.05 0.04 0.03
MSLP
1029.78 1029.55 1029.26 1028.92 1028.55 1028.16 1027.77 1027.36 1026.95 1026.54 1026.11 1025.66 1025.22 1024.78 1024.37 1024.00 1023.68 1023.40 1023.16 1022.93 1022.68 1022.40 1022.07 1021.69 1021.28 1020.86 1020.45 1020.10 1019.81 1019.62 1019.50 1019.45 1019.44 1019.46 1019.48 1019.49 1019.48 1019.48 1019.48 1019.50 1019.55 1019.64 1019.78
1030.44 1030.19 1029.88 1029.53 1029.15 1028.77 1028.37 1027.96 1027.54 1027.10 1026.63 1026.15 1025.65 1025.16 1024.71 1024.32 1024.00 1023.74 1023.54 1023.36 1023.17 1022.93 1022.64 1022.27 1021.86 1021.40 1020.96 1020.55 1020.22 1019.97 1019.80 1019.71 1019.68 1019.67 1019.67 1019.65 1019.62 1019.57 1019.53 1019.49 1019.49 1019.53 1019.62
1031.06 1030.80 1030.49 1030.15 1029.79 1029.42 1029.05 1028.66 1028.24 1027.79 1027.30 1026.78 1026.24 1025.71 1025.22 1024.81 1024.48 1024.23 1024.06 1023.92 1023.77 1023.58 1023.32 1022.98 1022.56 1022.10 1021.62 1021.17 1020.78 1020.47 1020.24 1020.09 1020.00 1019.93 1019.88 1019.82 1019.74 1019.65 1019.56 1019.49 1019.44 1019.44 1019.49
1031.69 1031.43 1031.13 1030.82 1030.49 1030.16 1029.83 1029.47 1029.07 1028.63 1028.12 1027.57 1027.00 1026.43 1025.91 1025.47 1025.13 1024.88 1024.72 1024.60 1024.48 1024.33 1024.10 1023.78 1023.38 1022.91 1022.42 1021.93 1021.49 1021.11 1020.80 1020.57 1020.39 1020.24 1020.11 1019.98 1019.85 1019.71 1019.58 1019.47 1019.39 1019.35 1019.37
1032.33 1032.09 1031.82 1031.55 1031.27 1030.99 1030.70 1030.37 1030.00 1029.56 1029.06 1028.49 1027.89 1027.30 1026.76 1026.29 1025.92 1025.66 1025.49 1025.38 1025.27 1025.13 1024.92 1024.63 1024.25 1023.80 1023.30 1022.80 1022.31 1021.87 1021.48 1021.15 1020.86 1020.61 1020.37 1020.16 1019.95 1019.75 1019.58 1019.43 1019.33 1019.27 1019.26
1032.99 1032.77 1032.54 1032.31 1032.08 1031.85 1031.60 1031.31 1030.96 1030.54 1030.04 1029.47 1028.87 1028.27 1027.71 1027.22 1026.83 1026.55 1026.36 1026.22 1026.10 1025.96 1025.76 1025.49 1025.13 1024.70 1024.22 1023.71 1023.20 1022.70 1022.23 1021.80 1021.40 1021.03 1020.68 1020.36 1020.06 1019.80 1019.58 1019.40 1019.28 1019.20 1019.16
1033.63 1033.44 1033.24 1033.05 1032.87 1032.68 1032.47 1032.21 1031.88 1031.48 1030.99 1030.45 1029.86 1029.27 1028.71 1028.22 1027.82 1027.51 1027.28 1027.10 1026.95 1026.78 1026.57 1026.30 1025.96 1025.56 1025.10 1024.60 1024.09 1023.56 1023.03 1022.51 1022.00 1021.51 1021.04 1020.61 1020.23 1019.89 1019.62 1019.41 1019.26 1019.16 1019.11
1034.20 1034.03 1033.87 1033.71 1033.56 1033.40 1033.22 1032.99 1032.68 1032.31 1031.86 1031.35 1030.80 1030.25 1029.72 1029.25 1028.84 1028.51 1028.24 1028.01 1027.80 1027.58 1027.33 1027.05 1026.72 1026.34 1025.91 1025.44 1024.93 1024.40 1023.83 1023.24 1022.64 1022.05 1021.47 1020.94 1020.46 1020.06 1019.74 1019.49 1019.32 1019.20 1019.12
1034.67 1034.51 1034.37 1034.24 1034.11 1033.98 1033.81 1033.60 1033.32 1032.98 1032.58 1032.12 1031.65 1031.16 1030.70 1030.27 1029.87 1029.52 1029.21 1028.91 1028.63 1028.34 1028.03 1027.71 1027.37 1027.00 1026.60 1026.17 1025.69 1025.17 1024.59 1023.96 1023.30 1022.63 1021.97 1021.35 1020.79 1020.32 1019.95 1019.67 1019.47 1019.32 1019.22
1034.99 1034.85 1034.72 1034.61 1034.51 1034.38 1034.23 1034.03 1033.78 1033.48 1033.14 1032.76 1032.38 1031.98 1031.60 1031.23 1030.86 1030.51 1030.15 1029.79 1029.42 1029.04 1028.66 1028.29 1027.92 1027.55 1027.18 1026.78 1026.34 1025.84 1025.27 1024.64 1023.95 1023.23 1022.51 1021.83 1021.21 1020.69 1020.27 1019.95 1019.73 1019.56 1019.43
1035.19 1035.06 1034.95 1034.86 1034.76 1034.65 1034.50 1034.32 1034.09 1033.83 1033.55 1033.26 1032.97 1032.68 1032.39 1032.09 1031.77 1031.41 1031.02 1030.59 1030.14 1029.67 1029.21 1028.77 1028.37 1027.99 1027.63 1027.26 1026.86 1026.40 1025.86 1025.24 1024.55 1023.81 1023.06 1022.35 1021.70 1021.14 1020.69 1020.35 1020.09 1019.89 1019.74
1035.29 1035.18 1035.09 1035.01 1034.92 1034.81 1034.67 1034.49 1034.28 1034.06 1033.84 1033.62 1033.42 1033.22 1033.02 1032.79 1032.52 1032.18 1031.76 1031.28 1030.76 1030.21 1029.67 1029.17 1028.72 1028.33 1027.97 1027.62 1027.26 1026.83 1026.33 1025.74 1025.07 1024.34 1023.59 1022.87 1022.21 1021.64 1021.17 1020.81 1020.52 1020.30 1020.11
1035.33 1035.24 1035.18 1035.11 1035.03 1034.92 1034.78 1034.59 1034.39 1034.18 1033.99 1033.83 1033.70 1033.58 1033.45 1033.29 1033.06 1032.73 1032.31 1031.80 1031.22 1030.62 1030.02 1029.47 1028.99 1028.57 1028.22 1027.89 1027.55 1027.16 1026.69 1026.14 1025.50 1024.79 1024.07 1023.37 1022.72 1022.15 1021.68 1021.31 1021.00 1020.75 1020.54
1035.35 1035.29 1035.25 1035.20 1035.13 1035.01 1034.84 1034.64 1034.42 1034.21 1034.03 1033.89 1033.79 1033.72 1033.65 1033.53 1033.34 1033.03 1032.62 1032.10 1031.51 1030.87 1030.25 1029.67 1029.17 1028.74 1028.39 1028.06 1027.74 1027.37 1026.94 1026.42 1025.81 1025.15 1024.47 1023.80 1023.18 1022.63 1022.18 1021.80 1021.48 1021.21 1020.96
1035.35 1035.32 1035.31 1035.27 1035.20 1035.06 1034.87 1034.64 1034.38 1034.14 1033.94 1033.79 1033.69 1033.64 1033.58 1033.50 1033.33 1033.06 1032.67 1032.17 1031.58 1030.96 1030.34 1029.77 1029.26 1028.84 1028.48 1028.17 1027.85 1027.49 1027.08 1026.58 1026.01 1025.39 1024.75 1024.13 1023.56 1023.05 1022.61 1022.24 1021.93 1021.63 1021.35
1035.33 1035.33 1035.34 1035.31 1035.22 1035.06 1034.83 1034.55 1034.25 1033.96 1033.71 1033.53 1033.41 1033.34 1033.28 1033.20 1033.06 1032.82 1032.46 1032.00 1031.47 1030.88 1030.30 1029.76 1029.28 1028.87 1028.52 1028.20 1027.88 1027.53 1027.12 1026.64 1026.10 1025.52 1024.93 1024.35 1023.83 1023.36 1022.96 1022.61 1022.29 1021.99 1021.68
1035.25 1035.28 1035.29 1035.25 1035.15 1034.96 1034.69 1034.36 1034.00 1033.65 1033.35 1033.12 1032.96 1032.86 1032.78 1032.70 1032.57 1032.36 1032.05 1031.65 1031.18 1030.66 1030.14 1029.65 1029.21 1028.83 1028.49 1028.17 1027.84 1027.48 1027.07 1026.59 1026.07 1025.52 1024.97 1024.45 1023.98 1023.56 1023.20 1022.87 1022.56 1022.24 1021.91
1035.09 1035.12 1035.12 1035.06 1034.93 1034.71 1034.40 1034.03 1033.63 1033.23 1032.88 1032.60 1032.40 1032.26 1032.16 1032.07 1031.95 1031.76 1031.50 1031.16 1030.76 1030.32 1029.87 1029.45 1029.05 1028.70 1028.37 1028.05 1027.71 1027.34 1026.91 1026.44 1025.93 1025.41 1024.90 1024.43 1024.00 1023.63 1023.30 1023.00 1022.70 1022.38 1022.02
1034.82 1034.83 1034.80 1034.72 1034.56 1034.31 1033.98 1033.58 1033.14 1032.72 1032.34 1032.02 1031.78 1031.61 1031.49 1031.39 1031.27 1031.10 1030.88 1030.59 1030.26 1029.89 1029.51 1029.14 1028.80 1028.47 1028.15 1027.83 1027.48 1027.09 1026.66 1026.18 1025.69 1025.19 1024.71 1024.28 1023.89 1023.56 1023.26 1022.98 1022.69 1022.37 1022.01
1034.43 1034.40 1034.34 1034.23 1034.04 1033.77 1033.41 1033.00 1032.56 1032.13 1031.74 1031.41 1031.15 1030.96 1030.82 1030.70 1030.57 1030.42 1030.22 1029.97 1029.68 1029.37 1029.05 1028.73 1028.42 1028.12 1027.81 1027.48 1027.13 1026.73 1026.29 1025.82 1025.33 1024.85 1024.40 1024.00 1023.65 1023.34 1023.07 1022.80 1022.52 1022.20 1021.84
1033.93 1033.86 1033.76 1033.61 1033.39 1033.11 1032.75 1032.34 1031.91 1031.49 1031.10 1030.78 1030.52 1030.31 1030.16 1030.02 1029.88 1029.72 1029.53 1029.30 1029.03 1028.75 1028.47 1028.18 1027.90 1027.61 1027.31 1026.99 1026.64 1026.24 1025.81 1025.34 1024.87 1024.42 1023.99 1023.61 1023.28 1022.99 1022.72 1022.46 1022.19 1021.87 1021.52
1033.38 1033.25 1033.11 1032.92 1032.67 1032.37 1032.01 1031.62 1031.20 1030.81 1030.44 1030.13 1029.88 1029.67 1029.50 1029.34 1029.18 1029.00 1028.79 1028.55 1028.30 1028.03 1027.76 1027.49 1027.22 1026.95 1026.66 1026.35 1026.01 1025.63 1025.21 1024.77 1024.32 1023.88 1023.48 1023.11 1022.79 1022.50 1022.24 1021.97 1021.69 1021.39 1021.04
1032.80 1032.62 1032.43 1032.19 1031.92 1031.60 1031.24 1030.85 1030.47 1030.09 1029.75 1029.45 1029.20 1028.99 1028.79 1028.61 1028.42 1028.21 1027.98 1027.72 1027.45 1027.18 1026.91 1026.65 1026.39 1026.14 1025.87 1025.58 1025.26 1024.90 1024.51 1024.10 1023.68 1023.27 1022.88 1022.52 1022.20 1021.91 1021.63 1021.35 1021.07 1020.75 1020.42
1032.24 1032.01 1031.76 1031.48 1031.17 1030.83 1030.46 1030.07 1029.69 1029.33 1029.00 1028.71 1028.46 1028.23 1028.02 1027.80 1027.58 1027.33 1027.07 1026.79 1026.50 1026.22 1025.94 1025.69 1025.44 1025.20 1024.96 1024.70 1024.41 1024.09 1023.74 1023.36 1022.98 1022.59 1022.22 1021.87 1021.54 1021.23 1020.93 1020.63 1020.33 1020.02 1019.69
1031.71 1031.43 1031.12 1030.79 1030.44 1030.06 1029.67 1029.27 1028.88 1028.51 1028.19 1027.89 1027.63 1027.38 1027.15 1026.91 1026.65 1026.37 1026.08 1025.78 1025.47 1025.19 1024.91 1024.66 1024.43 1024.22 1024.00 1023.77 1023.52 1023.24 1022.93 1022.59 1022.23 1021.87 1021.51 1021.16 1020.82 1020.49 1020.17 1019.86 1019.53 1019.21 1018.88
1031.20 1030.87 1030.51 1030.13 1029.72 1029.30 1028.87 1028.44 1028.03 1027.65 1027.31 1027.00 1026.72 1026.46 1026.21 1025.94 1025.67 1025.37 1025.07 1024.75 1024.44 1024.15 1023.89 1023.65 1023.44 1023.24 1023.05 1022.85 1022.63 1022.39 1022.11 1021.80 1021.47 1021.13 1020.78 1020.42 1020.07 1019.73 1019.39 1019.05 1018.71 1018.38 1018.05
Thickness
5590 5590 5591 5591 5592 5593 5594 5595 5596 5598 5600 5602 5604 5606 5609 5612 5615 5618 5621 5624 5627 5629 5631 5633 5634 5635 5636 5636 5637 5637 5637 5637 5637 5637 5637 5637 5637 5636 5636 5636 5635 5634 5634
5580 5580 5581 5581 5581 5582 5583 5584 5585 5587 5589 5591 5593 5596 5599 5602 5605 5608 5612 5614 5618 5621 5623 5625 5627 5628 5629 5630 5630 5631 5631 5631 5632 5631 5631 5631 5631 5631 5631 5631 5630 5630 5629
5570 5570 5570 5570 5570 5570 5571 5573 5574 5575 5578 5580 5582 5585 5588 5592 5595 5599 5602 5605 5608 5612 5615 5617 5619 5621 5622 5623 5624 5624 5625 5625 5625 5626 5625 5625 5625 5625 5625 5625 5625 5624 5624
5559 5559 5558 5558 5558 5558 5559 5561 5562 5563 5565 5567 5570 5574 5577 5581 5585 5588 5592 5595 5598 5602 5605 5608 5611 5613 5615 5616 5617 5618 5618 5619 5619 5619 5619 5620 5619 5619 5620 5619 5619 5619 5619
5548 5547 5546 5545 5545 5546 5546 5548 5549 5551 5552 5555 5558 5562 5566 5570 5574 5578 5581 5585 5589 5591 5595 5598 5601 5604 5606 5607 5609 5610 5611 5611 5612 5613 5613 5614 5614 5614 5614 5614 5614 5614 5613
5535 5535 5534 5534 5533 5534 5534 5535 5537 5539 5540 5543 5547 5550 5554 5559 5562 5567 5571 5574 5578 5581 5585 5588 5591 5594 5597 5598 5600 5602 5603 5604 5605 5606 5607 5607 5608 5608 5608 5608 5608 5608 5608
5521 5522 5522 5522 5521 5522 5522 5523 5524 5526 5528 5530 5533 5537 5542 5547 5551 5555 5559 5563 5566 5569 5573 5577 5580 5583 5586 5589 5591 5592 5594 5596 5598 5599 5600 5601 5602 5602 5603 5603 5603 5603 5603
5507 5508 5509 5509 5509 5509 5510 5510 5511 5512 5515 5516 5519 5522 5528 5534 5538 5543 5547 5551 5554 5558 5562 5565 5569 5572 5575 5578 5580 5582 5585 5587 5589 5591 5592 5594 5595 5596 5597 5597 5597 5597 5597
5493 5494 5495 5496 5496 5497 5497 5498 5498 5500 5501 5503 5505 5508 5511 5517 5522 5529 5534 5538 5542 5546 5550 5553 5558 5561 5564 5567 5570 5572 5575 5577 5580 5582 5584 5586 5588 5589 5591 5592 5592 5591 5591
5477 5478 5480 5482 5483 5484 5485 5485 5486 5487 5488 5490 5492 5495 5498 5502 5505 5514 5520 5525 5529 5533 5538 5541 5545 5549 5553 5556 5559 5561 5564 5567 5570 5573 5576 5578 5580 5582 5584 5586 5586 5586 5585
5462 5463 5465 5466 5468 5469 5470 5472 5473 5474 5476 5478 5480 5481 5485 5488 5492 5497 5506 5512 5516 5521 5525 5529 5533 5538 5541 5544 5547 5550 5553 5556 5560 5563 5566 5569 5571 5574 5576 5578 5579 5579 5578
5446 5448 5449 5451 5453 5455 5456 5458 5460 5461 5463 5465 5467 5469 5473 5477 5481 5484 5491 5497 5502 5508 5512 5517 5521 5526 5530 5533 5536 5538 5541 5545 5549 5553 5556 5559 5562 5564 5567 5569 5570 5571 5571
5431 5432 5434 5436 5438 5440 5442 5445 5447 5448 5450 5452 5455 5458 5461 5465 5470 5473 5477 5482 5487 5495 5500 5505 5510 5514 5518 5521 5524 5527 5530 5534 5538 5542 5545 5549 5551 5554 5556 5559 5561 5562 5564
5416 5417 5419 5421 5424 5426 5429 5432 5434 5436 5438 5440 5444 5447 5450 5453 5458 5462 5466 5469 5474 5481 5487 5494 5498 5502 5506 5509 5512 5515 5518 5522 5526 5531 5534 5538 5541 5543 5546 5548 5550 5552 5554
5402 5404 5405 5407 5410 5413 5416 5419 5422 5424 5427 5430 5433 5436 5439 5443 5446 5451 5456 5460 5464 5469 5478 5483 5485 5491 5494 5497 5500 5503 5507 5511 5515 5519 5523 5527 5530 5533 5536 5538 5540 5542 5544
5388 5390 5392 5394 5397 5400 5403 5406 5409 5412 5415 5419 5422 5425 5428 5432 5435 5438 5443 5448 5453 5457 5465 5472 5474 5478 5481 5484 5487 5491 5495 5499 5504 5508 5511 5515 5519 5523 5525 5528 5530 5531 5534
5376 5377 5379 5381 5384 5386 5390 5393 5396 5399 5403 5407 5410 5414 5418 5421 5424 5427 5431 5436 5441 5445 5451 5457 5460 5464 5468 5472 5475 5478 5482 5487 5491 5495 5499 5504 5508 5511 5514 5517 5519 5521 5523
5363 5364 5366 5368 5371 5373 5376 5380 5384 5388 5391 5395 5398 5402 5406 5410 5413 5416 5420 5424 5429 5434 5438 5443 5447 5450 5455 5459 5462 5465 5469 5473 5477 5482 5487 5491 5496 5500 5503 5506 5508 5511 5512
5351 5352 5354 5356 5359 5361 5364 5367 5371 5375 5378 5382 5386 5390 5395 5398 5402 5405 5409 5413 5417 5422 5427 5431 5435 5438 5441 5445 5448 5451 5455 5459 5463 5468 5473 5478 5483 5488 5491 5494 5497 5500 5502
5338 5340 5341 5344 5346 5349 5351 5355 5358 5362 5366 5370 5374 5378 5383 5387 5392 5395 5398 5402 5406 5410 5414 5419 5423 5426 5428 5432 5435 5438 5441 5445 5450 5454 5459 5465 5470 5475 5479 5483 5486 5488 5491
5326 5327 5329 5332 5334 5337 5340 5343 5347 5351 5355 5358 5362 5367 5372 5377 5381 5385 5389 5392 5395 5399 5403 5407 5411 5414 5417 5421 5424 5427 5430 5433 5436 5441 5446 5452 5458 5463 5466 5470 5473 5476 5479
5314 5316 5318 5320 5322 5325 5329 5333 5337 5340 5344 5347 5351 5356 5361 5366 5370 5375 5380 5383 5386 5389 5393 5396 5400 5404 5409 5411 5413 5415 5418 5421 5425 5430 5433 5438 5443 5448 5453 5458 5462 5464 5467
5303 5304 5306 5308 5311 5314 5319 5323 5326 5330 5333 5337 5340 5344 5349 5354 5359 5364 5369 5373 5376 5379 5383 5388 5392 5396 5399 5402 5404 5406 5408 5411 5416 5419 5420 5425 5430 5435 5440 5445 5449 5453 5456
5291 5292 5294 5297 5300 5304 5308 5313 5317 5320 5323 5326 5329 5333 5337 5343 5348 5353 5357 5362 5366 5370 5374 5379 5384 5388 5390 5392 5394 5397 5399 5400 5403 5406 5410 5414 5418 5422 5428 5433 5437 5441 5444
5280 5282 5284 5287 5289 5293 5297 5303 5307 5310 5314 5316 5319 5323 5327 5332 5337 5343 5347 5352 5357 5361 5365 5369 5373 5377 5380 5383 5385 5386 5388 5390 5393 5396 5399 5403 5407 5410 5415 5420 5425 5429 5432
5271 5272 5275 5277 5279 5283 5288 5293 5297 5301 5304 5308 5311 5314 5318 5322 5327 5332 5336 5341 5346 5351 5355 5359 5363 5366 5370 5373 5376 5379 5381 5382 5384 5386 5389 5391 5395 5397 5401 5408 5413 5417 5421